COSMOS 2162

Satellite information

Favourite Embed

Satellite Type and Status

PAYLOADIN ORBIT

Key statistics

Satellite COSMOS 2162 at a glance.

Uptime

12336

Days in orbit

Revolutions

≈ 12.6

Per day

Orbit

LEO

Low Earth Orbit

Inclination

82.6

Latest

Satellite identification and parameters

Extended collection of information and parameters for COSMOS 2162.

Object identification

Identified? True

Debris? False

Object name: COSMOS 2162

International designator: 1991-068F

Object number (NORAD): 21733

Object ID (CCSDS): 21733

Country: COMMONWEALTH OF INDEPENDENT STATES (CIS)

Current information (Y/N): Y

RCS size: LARGE

Orbital parameters

Period: 114.066 minutes

Inclination: 82.5869 deg

SMA: 7791.072 km

Apoapsis: 1417.165 km

Periapsis: 1408.709 km

RAAN: 199.8651 deg

Eccentricy: 0.0005427

Argument of periapsis: 282.2143 deg

Mean anomaly: 200.1171 deg

Mean motion: 12.62428897 rev/day

Mean motion (dot): 0.00000032 rev/day2

B* drag term: 0.00012159 1/REarth

Two-line elements (TLE)

Creation date: July 6, 2025, 6:05 p.m.

Reference frame: TEME

Reference center: EARTH

Epoch: July 6, 2025, 12:28 p.m. UTC

TLE line 0: 0 COSMOS 2162

TLE line 1: 1 21733U 91068F 25187.51963012 .00000032 00000-0 12159-3 0 9996

TLE line 2: 2 21733 82.5869 199.8651 0005427 282.2143 200.1171 12.62428897556327

Live tracking on map

Real-time ground track for satellite COSMOS 2162.

In-orbit conjunctions

There are no conjunctions computed for COSMOS 2162, at the moment. Check back to stay up to date, as we update our databases every day.

Go to all conjunctions

Associated space launch

Second generation store-dump military communications satellite

COSMOS 2162 was lifted into orbit during the mission ‘Tsiklon-3 | Strela-3 67 to 72’, on board a Tsiklon-3 space rocket.

The launch took place on Sept. 28, 1991, 7:05 a.m. from 32/2.

For more information about the launch, click the button.

Launch to space Tsiklon-3 | Strela-3 67 to 72
Tsiklon-3 | Strela-3 67 to 72

Agency: N/A

Status: Launch Successful

Launch date: Sept. 28, 1991, 7:05 a.m. UTC

Rocket: Tsiklon-3

Launch pad: 32/2

Location: Plesetsk Cosmodrome, Russian Federation

...

Latest news about this satellite

There are no fresh news available about this satellite. Check back as we update our databases every day.


Newsletter sign-up

Weekly statistics, charts and insights to help you stay on top of the space industry.